[[{"header":{"parameterUnit":"m.s-1","parameterCategory":2,"la1":30.2991,"la2":30.254,"lo1":-89.0895,"lo2":-89.0444,"dy":0.0017,"dx":0.0017,"nx":28,"ny":28,"refTime":"2023-10-03T03:00:00:Z","depth":"0","parameterNumber":2,"parameterNumberName":"U-component_of_CURRENTS"},"data":[0,0,0,0,0,0,0,0,0,0,0,0,0,0,0,0,0,0,0,0,0,0,0,0,0,0,0,0,0,0,0,0,0,0,0,0,0,0,0,0,0,0,0,0,0,0,0,0,0,0,0,0,0,0,0,0,0,0,-0.3345,-0.3346,0,-0.3406,-0.3406,-0.3405,-0.3341,-0.334,-0.3339,-0.3337,-0.3258,-0.3257,-0.3257,0,0,0,0,0,0,0,0,0,0,0,0,0,-0.2992,-0.2999,-0.3345,-0.3347,-0.3348,-0.3406,-0.3406,-0.3405,-0.3342,-0.334,-0.3338,-0.3337,-0.3258,-0.3257,-0.3256,0,0,0,0,0,0,0,0,0,0,0,0,0,-0.3098,-0.3002,-0.3344,-0.3332,-0.3333,-0.3406,-0.3406,-0.3405,-0.3342,-0.334,-0.3338,-0.3336,-0.3259,-0.3258,-0.3256,-0.329,0,0,-0.3253,-0.3252,0,0,0,0,0,0,0,0,-0.3092,-0.3109,-0.3332,-0.3334,-0.3334,-0.3375,-0.3253,-0.3364,-0.3343,-0.3326,-0.3337,-0.3335,-0.3294,-0.3289,-0.329,-0.3286,-0.3283,-0.3252,-0.3252,-0.3251,-0.3251,0,0,0,0,0,0,0,-0.3085,-0.3105,-0.3356,-0.3335,-0.3336,-0.3263,-0.3276,-0.3272,-0.3308,-0.3327,-0.3326,-0.3352,-0.3291,-0.3292,-0.3288,-0.3281,-0.3252,-0.3251,-0.3251,-0.325,-0.3271,-0.3272,0,0,0,0,0,0,-0.3115,-0.3101,-0.3355,-0.336,-0.3219,-0.3273,-0.3287,-0.3354,-0.3311,-0.3308,-0.3354,-0.3349,-0.3295,-0.3289,-0.3284,-0.3286,-0.3251,-0.325,-0.3249,-0.3269,-0.3271,-0.3272,0,0,0,0,0,0,-0.3108,-0.3139,-0.3353,-0.3237,-0.3261,-0.3284,-0.3358,-0.3356,-0.3362,-0.3336,-0.3326,-0.3363,-0.3293,-0.3286,-0.3286,-0.3284,-0.3249,-0.3248,-0.3268,-0.327,-0.3272,-0.3312,0,0,0,0,0,0,-0.3098,-0.3137,-0.3184,-0.3242,-0.3269,-0.3407,-0.3361,-0.3359,-0.3387,-0.3381,-0.3341,-0.3331,-0.3291,-0.3289,-0.3285,-0.3281,-0.3247,-0.3266,-0.3269,-0.3271,-0.3309,-0.3315,-0.3321,0,0,0,0,0,-0.3086,-0.317,-0.3187,-0.3217,-0.3339,-0.341,-0.3416,-0.3413,-0.339,-0.3405,-0.3373,-0.3332,-0.3301,-0.329,-0.3285,-0.328,-0.3265,-0.3268,-0.3271,-0.3307,-0.3314,-0.332,0,0,0,0,0,0,-0.304,-0.3175,-0.3193,-0.3314,-0.3363,-0.3404,-0.3429,-0.3429,-0.3419,-0.3403,-0.3358,-0.3347,-0.335,-0.3322,-0.3311,-0.3297,-0.3273,-0.3276,-0.3302,-0.3309,-0.3314,-0.3254,-0.3246,0,0,0,0,0,-0.3061,-0.3159,-0.3248,-0.3341,-0.3371,-0.34,-0.3426,-0.343,-0.3441,-0.3433,-0.3407,-0.3377,-0.3362,-0.334,-0.3333,-0.3327,-0.3263,-0.3321,-0.3326,-0.3331,-0.3281,-0.3186,-0.3177,-0.3282,-0.3282,-0.3282,0,0,-0.3073,-0.3157,-0.3213,-0.3336,-0.3369,-0.3411,-0.3407,-0.3461,-0.3467,-0.3428,-0.3418,-0.3411,-0.3374,-0.3366,-0.3361,-0.3334,-0.3284,-0.3335,-0.3339,-0.3285,-0.3188,-0.3177,-0.3167,-0.3284,-0.3284,-0.3283,0,0,-0.3115,-0.3217,-0.3287,-0.3336,-0.3411,-0.3433,-0.3455,-0.3502,-0.3491,-0.3507,-0.3472,-0.3455,-0.3446,-0.3398,-0.3376,-0.3411,-0.3334,-0.3424,-0.3375,-0.3287,-0.3275,-0.3264,-0.3226,-0.3211,-0.3404,-0.3404,-0.3404,0,-0.3116,-0.3204,-0.331,-0.3365,-0.3376,-0.3444,-0.3456,-0.3492,-0.3521,-0.3479,-0.3507,-0.3443,-0.3446,-0.3373,-0.3394,-0.3416,-0.3364,-0.3352,-0.3288,-0.3275,-0.3263,-0.3226,-0.3209,-0.3406,-0.3406,-0.3406,-0.3406,0,-0.3181,-0.3236,-0.3278,-0.3365,-0.3406,-0.3434,-0.3493,-0.3506,-0.3506,-0.35,-0.3453,-0.3456,-0.3388,-0.3417,-0.3419,-0.3335,-0.3332,-0.3323,-0.3259,-0.3254,-0.3218,-0.3199,-0.341,-0.3409,-0.3408,-0.3408,0,0,-0.3173,-0.3294,-0.3291,-0.3275,-0.338,-0.3396,-0.3434,-0.3423,-0.3381,-0.342,-0.3331,-0.3352,-0.3332,-0.3305,-0.3308,-0.3244,-0.3179,-0.3245,-0.3239,-0.3187,-0.3,-0.2963,-0.2939,-0.3145,-0.3141,-0.3138,-0.3029,0,-0.3145,-0.319,-0.3268,-0.3256,-0.3254,-0.3312,-0.3326,-0.3337,-0.3338,-0.3296,-0.328,-0.3237,-0.3299,-0.3263,-0.3215,-0.3192,-0.312,-0.321,-0.3027,-0.3022,-0.297,-0.2911,-0.2799,-0.2686,-0.301,-0.3007,-0.3005,0,-0.3119,-0.3142,-0.3124,-0.3119,-0.3123,-0.3142,-0.3088,-0.3117,-0.3116,-0.311,-0.3069,-0.3081,-0.3033,-0.3084,-0.2986,-0.3036,-0.3004,-0.2985,-0.298,-0.2894,-0.2945,-0.2734,-0.2639,-0.2628,-0.2975,-0.2977,-0.2979,0,-0.2951,-0.3,-0.2946,-0.296,-0.3017,-0.2982,-0.3006,-0.3024,-0.3016,-0.2983,-0.2965,-0.2911,-0.2894,-0.2831,-0.2866,-0.2896,-0.2751,-0.2786,-0.2708,-0.2709,-0.2545,-0.2536,-0.2382,-0.2647,-0.2647,-0.2648,-0.2648,0,-0.2832,-0.2786,-0.2858,-0.2828,-0.276,-0.2844,-0.2777,-0.2802,-0.2825,-0.2799,-0.2852,-0.2815,-0.2823,-0.2786,-0.2787,-0.2702,-0.2684,-0.2655,-0.2644,-0.2568,-0.2563,-0.2492,-0.253,-0.2644,-0.2644,-0.2645,-0.2646,0,-0.2647,-0.27,-0.2648,-0.2677,-0.2684,-0.2634,-0.2693,-0.2658,-0.2706,-0.2677,-0.2669,-0.2717,-0.2675,-0.2687,-0.2604,-0.2597,-0.2469,-0.2485,-0.2433,-0.2415,-0.2324,-0.237,-0.2165,-0.2109,-0.2348,-0.2346,-0.2344,0,-0.2552,-0.2508,-0.2527,-0.2507,-0.2518,-0.2495,-0.2498,-0.2576,-0.2571,-0.2615,-0.2586,-0.257,-0.2543,-0.2452,-0.2402,-0.2333,-0.2364,-0.2201,-0.2218,-0.2252,-0.2295,-0.2337,-0.231,-0.2053,-0.2049,-0.2045,-0.2043,0,-0.2362,-0.238,-0.2354,-0.233,-0.2315,-0.2311,-0.2328,-0.2323,-0.2411,-0.2411,-0.2408,-0.239,-0.2336,-0.2227,-0.2167,-0.212,-0.2142,-0.213,-0.2133,-0.1997,-0.2053,-0.2019,-0.2257,-0.2013,-0.2016,-0.2018,-0.202,-0.2021,-0.2224,-0.2173,-0.2161,-0.2123,-0.2127,-0.2114,-0.2059,-0.2114,-0.2105,-0.209,-0.2185,-0.2123,-0.2097,-0.1988,-0.195,-0.1841,-0.191,-0.1793,-0.1835,-0.1869,-0.1816,-0.2019,-0.1789,-0.1791,-0.1792,-0.1793,-0.1795,0,-0.2034,-0.2004,-0.1962,-0.1918,-0.1867,-0.1931,-0.1925,-0.1861,-0.1812,-0.1864,-0.1847,-0.1816,-0.1728,-0.173,-0.1649,-0.1575,-0.1553,-0.1552,-0.1568,-0.1546,-0.1665,-0.1654,-0.142,-0.142,-0.142,-0.142,-0.142,-0.142,-0.1928,-0.1827,-0.1815,-0.1671,-0.1646,-0.1528,-0.1496,-0.1451,-0.145,-0.1396,-0.1397,-0.1434,-0.1486,-0.1611,-0.1534,-0.1464,-0.1451,-0.1388,-0.1445,-0.1544,-0.1571,-0.1596,-0.1591,-0.1347,-0.1347,-0.1252,-0.1251,-0.1251]},{"header":{"parameterUnit":"m.s-1","parameterCategory":2,"la1":30.2991,"la2":30.254,"lo1":-89.0895,"lo2":-89.0444,"dy":0.0017,"dx":0.0017,"nx":28,"ny":28,"refTime":"2023-10-03T03:00:00:Z","depth":"0","parameterNumber":3,"parameterNumberName":"V-component_of_CURRENTS"},"data":[0,0,0,0,0,0,0,0,0,0,0,0,0,0,0,0,0,0,0,0,0,0,0,0,0,0,0,0,0,0,0,0,0,0,0,0,0,0,0,0,0,0,0,0,0,0,0,0,0,0,0,0,0,0,0,0,0,0,-0.0238,-0.0236,0,-0.0081,-0.0079,-0.0078,0.0009,0.001,0.001,0.001,0.0165,0.0169,0.0173,0,0,0,0,0,0,0,0,0,0,0,0,0,-0.0357,-0.0356,-0.0238,-0.0236,-0.0234,-0.0081,-0.0079,-0.0077,0.0009,0.001,0.001,0.001,0.0164,0.0169,0.0173,0,0,0,0,0,0,0,0,0,0,0,0,0,-0.0265,-0.0356,-0.0239,-0.0171,-0.0164,-0.0082,-0.0079,-0.0077,0.0009,0.001,0.001,0.0011,0.0163,0.0168,0.0174,0.0197,0,0,0.0191,0.0194,0,0,0,0,0,0,0,0,-0.0271,-0.0261,-0.0183,-0.0176,-0.0167,-0.0054,-0.0064,0.0015,0.0009,-0.0058,0.001,0.0011,0.0092,0.0104,0.013,0.0205,0.0211,0.0192,0.0195,0.0197,0.0199,0,0,0,0,0,0,0,-0.0277,-0.0267,-0.0177,-0.0181,-0.0171,-0.0112,-0.01,-0.0048,0.0011,-0.0052,-0.0045,-0.0026,0.0097,0.0124,0.0134,0.0214,0.0191,0.0196,0.02,0.0202,0.0353,0.0354,0,0,0,0,0,0,-0.03,-0.0274,-0.0182,-0.0173,-0.0217,-0.0111,-0.0097,-0.0092,0.0011,0.0027,-0.0026,-0.0022,0.0115,0.0128,0.014,0.0188,0.0197,0.0203,0.0206,0.0352,0.0353,0.0354,0,0,0,0,0,0,-0.0303,-0.0294,-0.0189,-0.0217,-0.02,-0.0111,-0.0105,-0.0089,-0.0061,0.0031,0.0047,-0.0014,0.0116,0.0132,0.0192,0.0194,0.0205,0.021,0.0352,0.0353,0.0353,0.0274,0,0,0,0,0,0,-0.0308,-0.0297,-0.0309,-0.022,-0.0199,-0.0152,-0.0104,-0.0086,-0.0049,-0.0042,0.0047,0.0062,0.0117,0.0183,0.0198,0.0202,0.0215,0.0351,0.0352,0.0353,0.0275,0.0272,0.0268,0,0,0,0,0,-0.0313,-0.0334,-0.0311,-0.0299,-0.0216,-0.0152,-0.0137,-0.0071,-0.0049,-0.0043,0.0026,0.0059,0.0201,0.0188,0.0205,0.0211,0.035,0.0352,0.0353,0.0277,0.0272,0.0268,0,0,0,0,0,0,-0.0392,-0.0324,-0.0297,-0.0297,-0.0234,-0.0137,-0.0129,-0.008,-0.0021,-0.0018,0.0067,0.0087,0.0143,0.0188,0.0172,0.026,0.0281,0.0286,0.0218,0.0214,0.021,0.0185,0.022,0,0,0,0,0,-0.0416,-0.0418,-0.0332,-0.0333,-0.0308,-0.0221,-0.019,-0.0142,-0.0072,-0.0046,0.0022,0.0094,0.0162,0.0194,0.0258,0.03,0.0332,0.0316,0.0313,0.0309,0.0302,0.0342,0.034,0.0358,0.0358,0.0358,0,0,-0.0452,-0.0411,-0.0414,-0.035,-0.03,-0.0265,-0.0202,-0.0162,-0.0128,-0.0039,0.0013,0.0083,0.0171,0.0227,0.0255,0.0263,0.0324,0.0311,0.0307,0.0302,0.0343,0.0341,0.0339,0.0359,0.0359,0.0359,0,0,-0.0509,-0.0483,-0.0496,-0.0446,-0.0372,-0.0313,-0.0306,-0.0212,-0.017,-0.0107,-0.003,0.0038,0.0133,0.0203,0.025,0.0263,0.0305,0.0283,0.0242,0.0281,0.0279,0.0278,0.0319,0.0322,0.0278,0.0278,0.0278,0,-0.0552,-0.0545,-0.0488,-0.047,-0.0433,-0.0341,-0.0326,-0.0269,-0.0165,-0.0131,-0.0105,0.0051,0.0124,0.0204,0.0217,0.0254,0.0279,0.0247,0.0273,0.0272,0.0272,0.0315,0.0319,0.0274,0.0275,0.0275,0.0276,0,-0.0599,-0.0588,-0.059,-0.0537,-0.0495,-0.0469,-0.0375,-0.0334,-0.0273,-0.0203,-0.0118,-0.0013,0.0079,0.0117,0.0175,0.0221,0.024,0.0261,0.0273,0.0265,0.0311,0.0317,0.0269,0.027,0.0272,0.0272,0,0,-0.07,-0.0639,-0.0636,-0.0612,-0.0525,-0.0488,-0.0446,-0.0367,-0.0334,-0.0241,-0.0192,-0.0065,-0.0009,0.0048,0.013,0.0171,0.0204,0.0207,0.0211,0.023,0.0284,0.035,0.0364,0.0219,0.0219,0.022,0.0316,0,-0.0747,-0.0735,-0.0688,-0.0664,-0.0641,-0.0552,-0.0516,-0.0435,-0.0359,-0.0293,-0.0183,-0.0105,-0.0034,0.001,0.0062,0.018,0.0215,0.0176,0.0306,0.031,0.0354,0.0371,0.0414,0.0508,0.0322,0.0323,0.0324,0,-0.0796,-0.0774,-0.0771,-0.0704,-0.0689,-0.0665,-0.0584,-0.0538,-0.0431,-0.0373,-0.0288,-0.0197,-0.009,-0.0048,0.0117,0.0084,0.017,0.0247,0.0253,0.0345,0.0387,0.0489,0.0526,0.0659,0.0333,0.0332,0.0332,0,-0.0864,-0.0825,-0.0824,-0.08,-0.0721,-0.0707,-0.0664,-0.0569,-0.0529,-0.0428,-0.039,-0.0258,-0.0181,-0.0067,0.0116,0.0107,0.0283,0.0294,0.0429,0.0435,0.0515,0.0527,0.0681,0.0376,0.0376,0.0376,0.0375,0,-0.0912,-0.0904,-0.0858,-0.0849,-0.0845,-0.0769,-0.0752,-0.0688,-0.061,-0.0562,-0.0442,-0.037,-0.0187,-0.0051,0.0088,0.0294,0.0265,0.0428,0.0466,0.0491,0.0499,0.0654,0.0699,0.0379,0.0379,0.0378,0.0377,0,-0.0968,-0.0943,-0.0934,-0.0884,-0.0875,-0.0868,-0.0815,-0.0798,-0.0715,-0.0653,-0.0626,-0.0449,-0.0254,-0.0064,0.015,0.0275,0.0546,0.052,0.0543,0.0583,0.0829,0.0866,0.1044,0.1136,0.0679,0.0682,0.0684,0,-0.0989,-0.0995,-0.0976,-0.0982,-0.0963,-0.0948,-0.0942,-0.0864,-0.0833,-0.0685,-0.0656,-0.0462,-0.028,0.0066,0.0313,0.0569,0.0654,0.0733,0.0731,0.086,0.0929,0.094,0.1004,0.0807,0.0809,0.0812,0.0813,0,-0.1022,-0.1026,-0.1021,-0.1045,-0.1051,-0.1052,-0.1026,-0.1012,-0.0908,-0.0822,-0.065,-0.0493,-0.0138,0.0209,0.0529,0.067,0.0843,0.0787,0.0917,0.1043,0.1069,0.117,0.0724,0.0834,0.0832,0.083,0.0829,0.0828,-0.1045,-0.1061,-0.1072,-0.109,-0.1112,-0.1125,-0.1104,-0.1045,-0.0968,-0.0776,-0.0643,-0.0329,0.0116,0.0605,0.0765,0.1097,0.1036,0.118,0.1215,0.1214,0.1308,0.0911,0.1065,0.1064,0.1064,0.1063,0.1063,0,-0.1056,-0.1076,-0.1107,-0.1129,-0.1165,-0.1162,-0.1133,-0.1066,-0.0939,-0.0716,-0.0495,0.0066,0.0514,0.0902,0.1353,0.1515,0.1538,0.1576,0.16,0.1646,0.1302,0.1314,0.1535,0.1535,0.1535,0.1534,0.1534,0.1534,-0.1057,-0.1088,-0.1108,-0.1161,-0.1181,-0.1173,-0.1143,-0.1009,-0.0821,-0.0422,-0.006,0.0225,0.0742,0.1446,0.1852,0.1875,0.2011,0.1979,0.206,0.1816,0.1781,0.1747,0.1771,0.2084,0.2085,0.2397,0.24,0.2403]}],[{"header":{"parameterUnit":"m.s-1","parameterCategory":2,"la1":30.2991,"la2":30.254,"lo1":-89.0895,"lo2":-89.0444,"dy":0.0017,"dx":0.0017,"nx":28,"ny":28,"refTime":"2023-10-03T03:00:00:Z","depth":"2","parameterNumber":2,"parameterNumberName":"U-component_of_CURRENTS"},"data":[0,0,0,0,0,0,0,0,0,0,0,0,0,0,0,0,0,0,0,0,0,0,0,0,0,0,0,0,0,0,0,0,0,0,0,0,0,0,0,0,0,0,0,0,0,0,0,0,0,0,0,0,0,0,0,0,0,0,-0.2619,-0.2621,0,-0.2745,-0.2746,-0.2748,-0.2768,-0.2767,-0.2766,-0.2765,-0.274,-0.274,-0.2741,0,0,0,0,0,0,0,0,0,0,0,0,0,-0.2458,-0.2461,-0.2619,-0.2621,-0.2622,-0.2745,-0.2746,-0.2748,-0.2768,-0.2767,-0.2766,-0.2764,-0.274,-0.274,-0.2741,0,0,0,0,0,0,0,0,0,0,0,0,0,-0.255,-0.2461,-0.2619,-0.2647,-0.2651,-0.2744,-0.2746,-0.2749,-0.2769,-0.2767,-0.2765,-0.2764,-0.274,-0.274,-0.2741,-0.2778,0,0,-0.2743,-0.2743,0,0,0,0,0,0,0,0,-0.2545,-0.2556,-0.2641,-0.2645,-0.265,-0.2739,-0.268,-0.2751,-0.2769,-0.2724,-0.2765,-0.2763,-0.2727,-0.2728,-0.2758,-0.2777,-0.2776,-0.2743,-0.2743,-0.2743,-0.2743,0,0,0,0,0,0,0,-0.2539,-0.2551,-0.2669,-0.2643,-0.2648,-0.2674,-0.2685,-0.2695,-0.2731,-0.2728,-0.273,-0.2744,-0.2728,-0.2758,-0.2757,-0.2776,-0.2743,-0.2743,-0.2744,-0.2744,-0.2825,-0.2827,0,0,0,0,0,0,-0.2522,-0.2546,-0.2665,-0.2673,-0.2592,-0.2678,-0.269,-0.2712,-0.2734,-0.2737,-0.2745,-0.2744,-0.2758,-0.2757,-0.2756,-0.2785,-0.2743,-0.2744,-0.2744,-0.2823,-0.2825,-0.2827,0,0,0,0,0,0,-0.2518,-0.2532,-0.266,-0.2611,-0.2629,-0.2682,-0.2707,-0.2716,-0.2756,-0.2749,-0.2748,-0.2777,-0.2756,-0.2755,-0.2781,-0.2784,-0.2744,-0.2745,-0.2821,-0.2824,-0.2826,-0.2852,0,0,0,0,0,0,-0.2513,-0.253,-0.255,-0.261,-0.2631,-0.2729,-0.2709,-0.2719,-0.2766,-0.2766,-0.2775,-0.2771,-0.2755,-0.2781,-0.2782,-0.2784,-0.2745,-0.2819,-0.2822,-0.2826,-0.2848,-0.2855,-0.286,0,0,0,0,0,-0.2507,-0.2559,-0.255,-0.2565,-0.2654,-0.273,-0.2745,-0.2776,-0.2769,-0.2802,-0.2804,-0.2771,-0.2802,-0.2783,-0.2784,-0.2786,-0.2817,-0.2821,-0.2825,-0.2846,-0.2854,-0.286,0,0,0,0,0,0,-0.2509,-0.2567,-0.2559,-0.2626,-0.267,-0.2734,-0.2774,-0.279,-0.2825,-0.2818,-0.2802,-0.28,-0.2825,-0.2815,-0.2795,-0.2824,-0.2802,-0.2806,-0.2817,-0.2824,-0.283,-0.2791,-0.2746,0,0,0,0,0,-0.2514,-0.2555,-0.2609,-0.2655,-0.2682,-0.2726,-0.2763,-0.2783,-0.2818,-0.2834,-0.2841,-0.2843,-0.2846,-0.2842,-0.2856,-0.2873,-0.2821,-0.2876,-0.2882,-0.2887,-0.2858,-0.2774,-0.2768,-0.2841,-0.2841,-0.2841,0,0,-0.252,-0.256,-0.258,-0.2656,-0.2691,-0.2733,-0.2745,-0.2809,-0.2827,-0.2822,-0.2859,-0.2874,-0.2862,-0.2883,-0.2891,-0.2868,-0.2852,-0.2892,-0.2895,-0.2864,-0.2777,-0.2769,-0.2762,-0.2844,-0.2843,-0.2843,0,0,-0.255,-0.2594,-0.2628,-0.2673,-0.2732,-0.2761,-0.278,-0.285,-0.2866,-0.2912,-0.2902,-0.292,-0.2945,-0.2928,-0.2919,-0.2968,-0.2896,-0.2979,-0.2958,-0.2878,-0.2869,-0.2861,-0.2828,-0.2816,-0.2967,-0.2967,-0.2967,0,-0.2551,-0.2592,-0.2652,-0.2698,-0.2717,-0.2769,-0.2794,-0.2838,-0.2903,-0.2892,-0.2924,-0.2937,-0.2957,-0.2921,-0.2954,-0.2975,-0.2926,-0.2927,-0.2879,-0.2869,-0.286,-0.2828,-0.2814,-0.2969,-0.2969,-0.2969,-0.2969,0,-0.2593,-0.2626,-0.2659,-0.2707,-0.2751,-0.279,-0.2839,-0.2873,-0.2897,-0.2914,-0.2918,-0.2954,-0.2938,-0.2969,-0.2983,-0.2931,-0.292,-0.2903,-0.2846,-0.2853,-0.2821,-0.2807,-0.2972,-0.2971,-0.297,-0.297,0,0,-0.2572,-0.2662,-0.2665,-0.2661,-0.2748,-0.2774,-0.2812,-0.2827,-0.2813,-0.2879,-0.2845,-0.2899,-0.2904,-0.2896,-0.2911,-0.2868,-0.2817,-0.2862,-0.2857,-0.2805,-0.2654,-0.2605,-0.2585,-0.277,-0.2766,-0.2764,-0.2673,0,-0.2562,-0.2608,-0.2665,-0.2681,-0.2695,-0.2743,-0.2766,-0.279,-0.2813,-0.2812,-0.282,-0.2822,-0.2875,-0.2872,-0.2837,-0.2829,-0.2772,-0.2845,-0.2676,-0.2672,-0.2604,-0.2563,-0.2395,-0.2293,-0.2658,-0.2655,-0.2654,0,-0.2558,-0.2582,-0.2591,-0.2617,-0.2628,-0.265,-0.2642,-0.2675,-0.2689,-0.2706,-0.2693,-0.2715,-0.2699,-0.2739,-0.2665,-0.2702,-0.267,-0.2659,-0.2654,-0.2573,-0.2592,-0.2339,-0.2252,-0.2628,-0.263,-0.2632,-0.2634,0,-0.2457,-0.2517,-0.2499,-0.2517,-0.2575,-0.2565,-0.2593,-0.2621,-0.2629,-0.2626,-0.2628,-0.2599,-0.26,-0.2541,-0.2571,-0.2592,-0.2478,-0.2496,-0.2409,-0.2408,-0.2212,-0.2198,-0.2381,-0.2381,-0.2382,-0.2382,-0.2382,0,-0.2396,-0.2383,-0.2447,-0.2435,-0.2409,-0.2484,-0.2459,-0.2487,-0.2519,-0.2508,-0.2557,-0.2535,-0.2544,-0.2509,-0.2507,-0.2421,-0.2412,-0.2376,-0.2354,-0.2227,-0.2216,-0.2461,-0.2471,-0.2378,-0.2379,-0.238,-0.238,0,-0.2273,-0.2324,-0.2305,-0.2347,-0.236,-0.2338,-0.2398,-0.2385,-0.2439,-0.2424,-0.2423,-0.2464,-0.2422,-0.2428,-0.2358,-0.2336,-0.2266,-0.2227,-0.2113,-0.2078,-0.227,-0.2283,-0.2098,-0.2095,-0.2092,-0.209,-0.2088,0,-0.2203,-0.2182,-0.2218,-0.2211,-0.2224,-0.2228,-0.2237,-0.2319,-0.2323,-0.2372,-0.2349,-0.2336,-0.2296,-0.2209,-0.2149,-0.2074,-0.217,-0.1889,-0.189,-0.2229,-0.2228,-0.2246,-0.2262,-0.1667,-0.1662,-0.1658,-0.1654,0,-0.2053,-0.2076,-0.2066,-0.2061,-0.2062,-0.207,-0.2098,-0.2103,-0.2189,-0.219,-0.2183,-0.2157,-0.2091,-0.194,-0.1871,-0.1815,-0.1894,-0.18,-0.2111,-0.1782,-0.1818,-0.182,-0.185,-0.1617,-0.162,-0.1623,-0.1625,-0.1627,-0.1933,-0.1898,-0.1902,-0.1885,-0.1901,-0.19,-0.1856,-0.1909,-0.1903,-0.1881,-0.196,-0.186,-0.1853,-0.1639,-0.1564,-0.1507,-0.1636,-0.1574,-0.1588,-0.1606,-0.1588,-0.1619,-0.138,-0.1382,-0.1384,-0.1386,-0.1388,0,-0.1765,-0.1753,-0.1731,-0.171,-0.1674,-0.1737,-0.1741,-0.168,-0.1627,-0.1645,-0.1609,-0.1432,-0.1333,-0.1336,-0.118,-0.1165,-0.1162,-0.1131,-0.1127,-0.1163,-0.1196,-0.116,-0.0837,-0.0836,-0.0834,-0.0833,0,0,-0.1671,-0.1598,-0.1596,-0.1487,-0.1477,-0.1376,-0.1348,-0.1294,-0.1272,-0.1185,-0.1132,-0.1215,-0.1263,-0.1039,-0.1002,-0.0889,-0.1016,-0.0845,-0.1281,-0.1309,-0.134,-0.144,-0.1424,0,0,0,0,0]},{"header":{"parameterUnit":"m.s-1","parameterCategory":2,"la1":30.2991,"la2":30.254,"lo1":-89.0895,"lo2":-89.0444,"dy":0.0017,"dx":0.0017,"nx":28,"ny":28,"refTime":"2023-10-03T03:00:00:Z","depth":"2","parameterNumber":3,"parameterNumberName":"V-component_of_CURRENTS"},"data":[0,0,0,0,0,0,0,0,0,0,0,0,0,0,0,0,0,0,0,0,0,0,0,0,0,0,0,0,0,0,0,0,0,0,0,0,0,0,0,0,0,0,0,0,0,0,0,0,0,0,0,0,0,0,0,0,0,0,-0.0322,-0.0321,0,-0.021,-0.0209,-0.0207,-0.0128,-0.0127,-0.0127,-0.0127,0.002,0.0023,0.0027,0,0,0,0,0,0,0,0,0,0,0,0,0,-0.0367,-0.0367,-0.0322,-0.032,-0.0319,-0.021,-0.0209,-0.0207,-0.0128,-0.0127,-0.0127,-0.0126,0.0019,0.0023,0.0027,0,0,0,0,0,0,0,0,0,0,0,0,0,-0.0309,-0.0367,-0.0322,-0.0268,-0.0262,-0.0211,-0.0208,-0.0206,-0.0128,-0.0127,-0.0127,-0.0126,0.0017,0.0022,0.0028,0.0045,0,0,0.0043,0.0046,0,0,0,0,0,0,0,0,-0.0312,-0.0307,-0.0277,-0.0272,-0.0265,-0.0184,-0.0171,-0.0121,-0.0128,-0.0177,-0.0127,-0.0126,-0.0047,-0.0036,-0.0015,0.0052,0.0058,0.0044,0.0047,0.0049,0.0051,0,0,0,0,0,0,0,-0.0317,-0.0311,-0.0276,-0.0276,-0.0269,-0.0215,-0.0207,-0.016,-0.0115,-0.0173,-0.0167,-0.0158,-0.0043,-0.002,-0.0011,0.006,0.0044,0.0048,0.0052,0.0054,0.0187,0.0188,0,0,0,0,0,0,-0.034,-0.0316,-0.0279,-0.0273,-0.0289,-0.0216,-0.0206,-0.0209,-0.0116,-0.0102,-0.0159,-0.0155,-0.0029,-0.0017,-0.0005,0.0042,0.0049,0.0054,0.0057,0.0187,0.0188,0.0188,0,0,0,0,0,0,-0.0342,-0.0338,-0.0284,-0.0292,-0.0281,-0.0216,-0.022,-0.0207,-0.0184,-0.0106,-0.0091,-0.0148,-0.0028,-0.0012,0.0041,0.0047,0.0056,0.0061,0.0186,0.0187,0.0188,0.0123,0,0,0,0,0,0,-0.0344,-0.034,-0.0353,-0.0294,-0.0282,-0.0264,-0.022,-0.0206,-0.018,-0.0174,-0.0093,-0.0078,-0.0026,0.0033,0.0046,0.0055,0.0065,0.0186,0.0187,0.0188,0.0125,0.0121,0.0119,0,0,0,0,0,-0.0346,-0.0371,-0.0354,-0.035,-0.0301,-0.0265,-0.0254,-0.0202,-0.0181,-0.0177,-0.0114,-0.008,0.0048,0.0037,0.0053,0.0063,0.0185,0.0186,0.0187,0.0126,0.0122,0.0119,0,0,0,0,0,0,-0.0397,-0.0363,-0.0344,-0.0358,-0.0318,-0.0252,-0.0248,-0.0211,-0.0159,-0.0153,-0.0076,-0.0057,-0.0008,0.0035,0.0021,0.0105,0.0123,0.0127,0.0071,0.0068,0.0065,0.0054,0.0069,0,0,0,0,0,-0.0417,-0.0428,-0.0377,-0.0388,-0.0374,-0.0313,-0.0292,-0.0257,-0.0203,-0.018,-0.0117,-0.0051,0.0008,0.0042,0.0096,0.0138,0.0176,0.0157,0.0154,0.0151,0.0154,0.0209,0.0211,0.0191,0.0191,0.0191,0,0,-0.0444,-0.0424,-0.0432,-0.04,-0.0367,-0.0347,-0.0299,-0.0277,-0.0251,-0.0173,-0.0122,-0.0064,0.0016,0.0068,0.0094,0.0105,0.0175,0.0152,0.0149,0.0154,0.021,0.0212,0.0214,0.0192,0.0192,0.0192,0,0,-0.0492,-0.0483,-0.05,-0.0469,-0.0426,-0.0385,-0.0383,-0.0318,-0.0282,-0.0231,-0.0163,-0.0099,-0.0015,0.0053,0.0096,0.0109,0.0154,0.0122,0.0104,0.0157,0.0159,0.0161,0.0201,0.0208,0.0124,0.0124,0.0124,0,-0.0523,-0.053,-0.0498,-0.0491,-0.0467,-0.0407,-0.04,-0.0357,-0.0279,-0.0243,-0.0226,-0.0081,-0.0018,0.0066,0.0075,0.0103,0.0131,0.0107,0.0152,0.0155,0.0158,0.0199,0.0207,0.0121,0.0122,0.0122,0.0122,0,-0.0568,-0.0567,-0.0573,-0.0544,-0.0517,-0.0506,-0.044,-0.0406,-0.0356,-0.0297,-0.0214,-0.0124,-0.0033,-0.0004,0.0043,0.0104,0.0116,0.0134,0.0154,0.0155,0.0199,0.0208,0.0117,0.0118,0.0119,0.012,0,0,-0.0649,-0.0614,-0.0613,-0.0596,-0.054,-0.0519,-0.0483,-0.0419,-0.0383,-0.0307,-0.0248,-0.0138,-0.0086,-0.0033,0.0035,0.0088,0.0136,0.0115,0.0119,0.0143,0.024,0.0273,0.0286,0.0154,0.0156,0.0157,0.0257,0,-0.0688,-0.0689,-0.0656,-0.0642,-0.063,-0.0562,-0.0528,-0.0462,-0.0395,-0.0327,-0.0225,-0.0151,-0.0098,-0.0057,0.0006,0.011,0.0158,0.0107,0.0246,0.025,0.027,0.0298,0.0265,0.0354,0.0266,0.0268,0.0269,0,-0.0736,-0.0722,-0.0725,-0.067,-0.0659,-0.0643,-0.0568,-0.0529,-0.0424,-0.037,-0.0281,-0.0203,-0.0094,-0.0066,0.0102,0.0062,0.0143,0.0214,0.022,0.0282,0.0301,0.0343,0.0374,0.0285,0.0284,0.0282,0.0281,0,-0.0793,-0.0765,-0.0767,-0.075,-0.0687,-0.0671,-0.0635,-0.0545,-0.0504,-0.0401,-0.0359,-0.0226,-0.0155,-0.0037,0.0118,0.0107,0.0289,0.0295,0.0399,0.0402,0.042,0.0422,0.0398,0.0398,0.0398,0.0398,0.0397,0,-0.0836,-0.0831,-0.0796,-0.0792,-0.0783,-0.0722,-0.0697,-0.0638,-0.0556,-0.0503,-0.0391,-0.0317,-0.0147,-0.0018,0.0108,0.0291,0.0285,0.0407,0.0438,0.0396,0.0395,0.0374,0.0369,0.0402,0.0401,0.04,0.0399,0,-0.0889,-0.087,-0.0866,-0.0822,-0.0813,-0.0807,-0.0753,-0.0729,-0.0645,-0.0576,-0.0548,-0.0379,-0.0202,-0.003,0.0177,0.0284,0.0448,0.0506,0.0442,0.0464,0.0522,0.0514,0.0634,0.0636,0.0638,0.0639,0.064,0,-0.0911,-0.0919,-0.0905,-0.091,-0.0894,-0.0877,-0.0868,-0.0789,-0.0752,-0.0602,-0.0567,-0.0389,-0.023,0.0084,0.0292,0.0518,0.0507,0.0603,0.0588,0.0533,0.0551,0.0539,0.0528,0.0581,0.0582,0.0582,0.0583,0,-0.0943,-0.0948,-0.0945,-0.0967,-0.097,-0.0965,-0.0935,-0.0915,-0.0809,-0.0721,-0.056,-0.0423,-0.0119,0.0144,0.0418,0.0535,0.0566,0.0623,0.06,0.0525,0.0492,0.0506,0.0495,0.0588,0.0587,0.0587,0.0587,0.0586,-0.0963,-0.0979,-0.099,-0.1006,-0.1023,-0.1026,-0.1005,-0.0944,-0.0865,-0.0687,-0.0563,-0.0306,-0.009,0.0337,0.0504,0.0653,0.0656,0.0687,0.0682,0.0677,0.0652,0.0624,0.0739,0.0739,0.074,0.074,0.074,0,-0.0971,-0.0993,-0.102,-0.1039,-0.1066,-0.1063,-0.1026,-0.0966,-0.085,-0.0658,-0.0466,-0.0174,0.0117,0.0339,0.0594,0.0736,0.0698,0.0735,0.0662,0.0657,0.0652,0.0622,0.0704,0.0704,0.0704,0.0704,0,0,-0.097,-0.0999,-0.1018,-0.1064,-0.1083,-0.1075,-0.1045,-0.093,-0.0773,-0.0555,-0.0343,-0.0097,0.0172,0.0342,0.0496,0.0619,0.0594,0.0612,0.0627,0.0516,0.051,0.0612,0.0558,0,0,0,0,0]}],[{"header":{"parameterUnit":"m.s-1","parameterCategory":2,"la1":30.2991,"la2":30.254,"lo1":-89.0895,"lo2":-89.0444,"dy":0.0017,"dx":0.0017,"nx":28,"ny":28,"refTime":"2023-10-03T03:00:00:Z","depth":"4","parameterNumber":2,"parameterNumberName":"U-component_of_CURRENTS"},"data":[0,0,0,0,0,0,0,0,0,0,0,0,0,0,0,0,0,0,0,0,0,0,0,0,0,0,0,0,0,0,0,0,0,0,0,0,0,0,0,0,0,0,0,0,0,0,0,0,0,0,0,0,0,0,0,0,0,0,-0.1594,-0.1594,0,-0.1598,-0.1598,-0.1598,-0.1594,-0.1594,-0.1594,-0.1594,-0.1663,-0.1665,-0.1667,0,0,0,0,0,0,0,0,0,0,0,0,0,-0.1602,-0.1602,-0.1594,-0.1594,-0.1594,-0.1598,-0.1598,-0.1598,-0.1594,-0.1594,-0.1594,-0.1594,-0.1662,-0.1665,-0.1667,0,0,0,0,0,0,0,0,0,0,0,0,0,-0.1602,-0.1602,-0.1594,-0.1592,-0.1592,-0.1598,-0.1598,-0.1598,-0.1595,-0.1594,-0.1594,-0.1594,-0.1661,-0.1664,-0.1667,-0.1692,0,0,-0.1677,-0.1678,0,0,0,0,0,0,0,0,-0.1602,-0.1602,-0.1592,-0.1592,-0.1592,-0.1595,-0.1627,-0.1633,-0.1595,-0.1594,-0.1594,-0.1593,-0.1646,-0.165,-0.1652,-0.1695,-0.1698,-0.1677,-0.1679,-0.168,-0.1681,0,0,0,0,0,0,0,-0.1602,-0.1602,-0.1596,-0.1592,-0.1592,-0.1598,-0.1598,-0.1628,-0.1623,-0.1594,-0.1594,-0.1594,-0.1646,-0.1649,-0.1653,-0.1699,-0.1677,-0.1679,-0.1681,-0.1683,-0.1797,-0.1798,0,0,0,0,0,0,-0.16,-0.1602,-0.1596,-0.1596,-0.1596,-0.1598,-0.1598,-0.1595,-0.1621,-0.1625,-0.1594,-0.1593,-0.1644,-0.165,-0.1656,-0.1738,-0.168,-0.1683,-0.1685,-0.1796,-0.1798,-0.1799,0,0,0,0,0,0,-0.16,-0.1599,-0.1595,-0.1599,-0.1599,-0.1598,-0.1595,-0.1595,-0.1618,-0.1621,-0.1625,-0.1619,-0.1644,-0.1652,-0.1691,-0.1739,-0.1684,-0.1687,-0.1795,-0.1797,-0.1798,-0.187,0,0,0,0,0,0,-0.16,-0.1599,-0.1611,-0.1598,-0.1598,-0.1609,-0.1595,-0.1595,-0.1617,-0.1617,-0.1644,-0.1648,-0.1644,-0.1686,-0.1694,-0.1742,-0.1689,-0.1793,-0.1795,-0.1798,-0.1866,-0.1874,-0.1881,0,0,0,0,0,-0.16,-0.1605,-0.1611,-0.1611,-0.1609,-0.161,-0.1611,-0.161,-0.1619,-0.163,-0.1645,-0.1648,-0.1706,-0.1689,-0.1698,-0.1749,-0.1792,-0.1795,-0.1797,-0.1863,-0.1873,-0.1881,0,0,0,0,0,0,-0.1616,-0.1605,-0.1611,-0.1614,-0.162,-0.1609,-0.1621,-0.1628,-0.165,-0.1658,-0.1664,-0.167,-0.1719,-0.1722,-0.1704,-0.1785,-0.1751,-0.1755,-0.1797,-0.1807,-0.1814,-0.1794,-0.1692,0,0,0,0,0,-0.1626,-0.1626,-0.1623,-0.1629,-0.1634,-0.1639,-0.1646,-0.1647,-0.1656,-0.1666,-0.1693,-0.1716,-0.1734,-0.176,-0.1773,-0.1829,-0.1802,-0.1865,-0.1873,-0.1879,-0.1867,-0.1865,-0.1871,-0.1808,-0.1808,-0.1808,0,0,-0.1636,-0.1629,-0.1632,-0.1634,-0.1639,-0.1655,-0.1643,-0.1657,-0.1681,-0.1673,-0.1731,-0.1743,-0.175,-0.1798,-0.1823,-0.1813,-0.1884,-0.1882,-0.1888,-0.1872,-0.1868,-0.1874,-0.188,-0.181,-0.1809,-0.1809,0,0,-0.1652,-0.1651,-0.1662,-0.1671,-0.1681,-0.1679,-0.1692,-0.1708,-0.1727,-0.1775,-0.1771,-0.1798,-0.1858,-0.1857,-0.1865,-0.1923,-0.1915,-0.1954,-0.1992,-0.1992,-0.1997,-0.2,-0.1979,-0.198,-0.197,-0.197,-0.197,0,-0.1669,-0.168,-0.1668,-0.1686,-0.1702,-0.1697,-0.1725,-0.1738,-0.1772,-0.1796,-0.1803,-0.1867,-0.1875,-0.1912,-0.193,-0.194,-0.1937,-0.1961,-0.2001,-0.2004,-0.2007,-0.1983,-0.1984,-0.1974,-0.1973,-0.1973,-0.1972,0,-0.169,-0.1714,-0.1722,-0.1741,-0.1755,-0.1775,-0.1789,-0.1824,-0.1855,-0.1869,-0.1926,-0.1931,-0.1965,-0.1985,-0.1979,-0.2018,-0.2008,-0.2002,-0.1977,-0.2017,-0.199,-0.199,-0.1979,-0.1978,-0.1977,-0.1976,0,0,-0.1682,-0.173,-0.1737,-0.176,-0.179,-0.1794,-0.1848,-0.1882,-0.1913,-0.1958,-0.2004,-0.2035,-0.204,-0.2046,-0.2052,-0.2058,-0.2074,-0.2054,-0.2053,-0.2029,-0.2073,-0.1936,-0.1921,-0.2094,-0.2095,-0.2095,-0.2047,0,-0.1708,-0.1751,-0.1777,-0.1825,-0.1841,-0.1873,-0.1916,-0.1947,-0.198,-0.2023,-0.2034,-0.2066,-0.2064,-0.2087,-0.2096,-0.2075,-0.2076,-0.2086,-0.2038,-0.2036,-0.1907,-0.1917,-0.2096,-0.2046,-0.2046,-0.2046,-0.2046,0,-0.1712,-0.1739,-0.1795,-0.1857,-0.1872,-0.1907,-0.1963,-0.2003,-0.205,-0.2083,-0.212,-0.2124,-0.2139,-0.2127,-0.2113,-0.2132,-0.2107,-0.2085,-0.2083,-0.1922,-0.1896,-0.1996,-0.2043,-0.2044,-0.2044,-0.2044,-0.2044,0,-0.1666,-0.1748,-0.1792,-0.1812,-0.188,-0.1926,-0.1969,-0.2023,-0.2051,-0.2111,-0.2129,-0.216,-0.2159,-0.2154,-0.211,-0.2127,-0.2076,-0.2086,-0.1934,-0.1924,-0.2031,-0.2027,-0.2064,-0.2064,-0.2064,-0.2064,-0.2064,0,-0.1642,-0.1679,-0.1778,-0.1788,-0.1842,-0.1907,-0.196,-0.2013,-0.2075,-0.2083,-0.2147,-0.2137,-0.2169,-0.2143,-0.2119,-0.2007,-0.208,-0.1921,-0.1898,-0.2063,-0.2064,-0.203,-0.2027,-0.2062,-0.2063,-0.2063,-0.2063,0,-0.1553,-0.1631,-0.1675,-0.1775,-0.1812,-0.1839,-0.1937,-0.196,-0.2041,-0.2055,-0.2071,-0.2115,-0.2074,-0.2076,-0.2041,-0.1979,-0.191,-0.1854,-0.2014,-0.2004,-0.1761,-0.1762,-0.1678,-0.1673,-0.1668,-0.1665,-0.1662,0,-0.15,-0.1517,-0.1633,-0.166,-0.1707,-0.1773,-0.1809,-0.1919,-0.1937,-0.2006,-0.1988,-0.199,-0.1996,-0.183,-0.1863,-0.1795,-0.1776,-0.1738,-0.1759,-0.1732,-0.172,-0.1728,-0.1735,-0.1654,-0.1653,-0.1652,-0.1651,0,-0.1383,-0.1446,-0.1481,-0.1543,-0.1595,-0.164,-0.1707,-0.1712,-0.1814,-0.19,-0.1842,-0.1807,-0.1753,-0.1719,-0.1673,-0.1632,-0.1766,-0.1691,-0.17,-0.172,-0.1703,-0.1696,-0.1709,-0.1635,-0.1637,-0.1639,-0.164,0,-0.1294,-0.1296,-0.1363,-0.1401,-0.147,-0.1487,-0.1545,-0.1562,-0.1598,-0.1695,-0.1661,-0.1672,-0.1721,-0.163,-0.1589,-0.1535,-0.1517,-0.148,-0.1501,-0.1518,-0.1487,-0.1443,-0.1258,0,0,0,0,0,-0.1188,-0.1186,-0.1216,-0.1256,-0.1322,-0.1358,-0.1461,-0.1524,-0.1629,-0.1541,-0.1601,-0.1543,-0.1473,-0.1486,-0.1393,-0.1516,-0.1528,-0.1404,-0.15,-0.1548,-0.1566,-0.1545,0,0,0,0,0,0,-0.1118,-0.1144,-0.1164,-0.1128,-0.1127,-0.1178,-0.124,-0.1318,-0.1289,-0.1397,-0.1363,-0.1436,-0.139,-0.148,-0.1348,-0.1352,-0.138,-0.1424,-0.142,-0.1538,-0.1554,-0.1569,-0.1553,0,0,0,0,0]},{"header":{"parameterUnit":"m.s-1","parameterCategory":2,"la1":30.2991,"la2":30.254,"lo1":-89.0895,"lo2":-89.0444,"dy":0.0017,"dx":0.0017,"nx":28,"ny":28,"refTime":"2023-10-03T03:00:00:Z","depth":"4","parameterNumber":3,"parameterNumberName":"V-component_of_CURRENTS"},"data":[0,0,0,0,0,0,0,0,0,0,0,0,0,0,0,0,0,0,0,0,0,0,0,0,0,0,0,0,0,0,0,0,0,0,0,0,0,0,0,0,0,0,0,0,0,0,0,0,0,0,0,0,0,0,0,0,0,0,-0.0268,-0.0268,0,-0.0236,-0.0235,-0.0235,-0.0206,-0.0205,-0.0205,-0.0205,-0.0118,-0.0117,-0.0115,0,0,0,0,0,0,0,0,0,0,0,0,0,-0.0264,-0.0265,-0.0268,-0.0268,-0.0268,-0.0236,-0.0235,-0.0235,-0.0206,-0.0205,-0.0205,-0.0205,-0.0119,-0.0117,-0.0114,0,0,0,0,0,0,0,0,0,0,0,0,0,-0.0253,-0.0265,-0.0269,-0.0249,-0.0247,-0.0236,-0.0235,-0.0235,-0.0206,-0.0205,-0.0205,-0.0204,-0.012,-0.0117,-0.0114,-0.0107,0,0,-0.0105,-0.0104,0,0,0,0,0,0,0,0,-0.0253,-0.0253,-0.0252,-0.025,-0.0248,-0.0224,-0.0202,-0.0189,-0.0206,-0.0222,-0.0205,-0.0204,-0.0149,-0.0144,-0.014,-0.0103,-0.0099,-0.0105,-0.0103,-0.0102,-0.0101,0,0,0,0,0,0,0,-0.0254,-0.0254,-0.0256,-0.0252,-0.0249,-0.0228,-0.0226,-0.02,-0.0188,-0.022,-0.0218,-0.0214,-0.0147,-0.0143,-0.0137,-0.0098,-0.0105,-0.0102,-0.0101,-0.0099,-0.0051,-0.0051,0,0,0,0,0,0,-0.0261,-0.0255,-0.0257,-0.0255,-0.0249,-0.0228,-0.0226,-0.0233,-0.0189,-0.0183,-0.0215,-0.0213,-0.0148,-0.0141,-0.0134,-0.0113,-0.0102,-0.0099,-0.0097,-0.005,-0.0051,-0.0051,0,0,0,0,0,0,-0.0261,-0.0262,-0.0258,-0.0253,-0.0251,-0.0229,-0.0236,-0.0232,-0.0228,-0.0186,-0.0178,-0.0215,-0.0147,-0.0138,-0.0117,-0.0109,-0.0098,-0.0095,-0.005,-0.005,-0.0051,-0.0076,0,0,0,0,0,0,-0.0261,-0.0262,-0.0273,-0.0254,-0.0252,-0.0259,-0.0237,-0.0232,-0.0227,-0.0224,-0.0184,-0.0175,-0.0146,-0.0122,-0.0114,-0.0105,-0.0093,-0.0049,-0.005,-0.0051,-0.0075,-0.0077,-0.008,0,0,0,0,0,-0.0261,-0.0281,-0.0274,-0.0274,-0.0266,-0.026,-0.0257,-0.0239,-0.0228,-0.0233,-0.0204,-0.0176,-0.0122,-0.012,-0.0111,-0.0101,-0.0049,-0.005,-0.0051,-0.0073,-0.0077,-0.008,0,0,0,0,0,0,-0.0287,-0.0279,-0.0271,-0.0288,-0.0277,-0.0255,-0.026,-0.0245,-0.0228,-0.0225,-0.0182,-0.0172,-0.0154,-0.0129,-0.0128,-0.0092,-0.0081,-0.008,-0.0101,-0.0104,-0.0107,-0.0097,-0.009,0,0,0,0,0,-0.0298,-0.031,-0.0293,-0.0308,-0.0305,-0.0283,-0.0279,-0.0267,-0.0247,-0.024,-0.0209,-0.0178,-0.0152,-0.013,-0.0111,-0.0086,-0.0044,-0.0075,-0.0078,-0.008,-0.0068,0.0007,0.0013,-0.0055,-0.0055,-0.0055,0,0,-0.0316,-0.0309,-0.0319,-0.0314,-0.0305,-0.0304,-0.028,-0.0281,-0.0273,-0.0232,-0.0217,-0.0193,-0.0153,-0.0131,-0.0119,-0.0104,-0.0045,-0.0082,-0.0084,-0.0069,0.0007,0.0014,0.002,-0.0056,-0.0055,-0.0055,0,0,-0.035,-0.0349,-0.0366,-0.0356,-0.0344,-0.0329,-0.033,-0.031,-0.0296,-0.0281,-0.025,-0.0217,-0.0184,-0.0143,-0.0119,-0.0124,-0.0072,-0.0125,-0.0113,-0.0041,-0.0034,-0.0027,0.0013,0.0024,-0.0113,-0.0113,-0.0113,0,-0.0369,-0.0384,-0.037,-0.0374,-0.0366,-0.0341,-0.0346,-0.0331,-0.0305,-0.0281,-0.0283,-0.0208,-0.0183,-0.0124,-0.0131,-0.0125,-0.0088,-0.0102,-0.0042,-0.0034,-0.0027,0.0014,0.0026,-0.0115,-0.0115,-0.0114,-0.0114,0,-0.0406,-0.0414,-0.0422,-0.0416,-0.0407,-0.0411,-0.0382,-0.0369,-0.0348,-0.0315,-0.0266,-0.0227,-0.0172,-0.0165,-0.0149,-0.0084,-0.0077,-0.0063,-0.0029,-0.0021,0.002,0.0033,-0.0117,-0.0116,-0.0116,-0.0115,0,0,-0.0458,-0.0451,-0.0454,-0.0448,-0.0427,-0.0422,-0.0406,-0.037,-0.0344,-0.0308,-0.026,-0.0214,-0.0176,-0.0148,-0.0114,-0.0051,0.0015,-0.0037,-0.0032,0.0011,0.0158,0.0124,0.0136,0.0047,0.0049,0.0052,0.0158,0,-0.0489,-0.0505,-0.0489,-0.0494,-0.0494,-0.0455,-0.0438,-0.0398,-0.0358,-0.0308,-0.0236,-0.0193,-0.0173,-0.0149,-0.0079,-0.0012,0.0053,-0.0016,0.0138,0.0142,0.0119,0.0151,0.006,0.0168,0.0171,0.0174,0.0175,0,-0.0528,-0.0528,-0.0546,-0.0515,-0.0512,-0.0511,-0.046,-0.0441,-0.0358,-0.0321,-0.0242,-0.0192,-0.0099,-0.0092,0.0065,0.002,0.0088,0.0144,0.015,0.0142,0.0134,0.0164,0.02,0.0198,0.0196,0.0195,0.0193,0,-0.0564,-0.0563,-0.0577,-0.057,-0.054,-0.0533,-0.0513,-0.0446,-0.0417,-0.0329,-0.029,-0.017,-0.0119,0.0001,0.0104,0.0093,0.0271,0.0273,0.0313,0.031,0.032,0.0312,0.0396,0.0396,0.0396,0.0396,0.0395,0,-0.0592,-0.06,-0.06,-0.0604,-0.0608,-0.0571,-0.0556,-0.0512,-0.0444,-0.0396,-0.0304,-0.0236,-0.0091,0.0022,0.0122,0.0254,0.0293,0.0327,0.0348,0.03,0.0289,0.0328,0.0319,0.04,0.0399,0.0398,0.0397,0,-0.062,-0.0626,-0.0639,-0.0628,-0.063,-0.0632,-0.0602,-0.0579,-0.0513,-0.0447,-0.0421,-0.0278,-0.0132,0.0009,0.0195,0.0262,0.0396,0.0433,0.0357,0.0368,0.0381,0.0369,0.0497,0.0497,0.0497,0.0497,0.0497,0,-0.0631,-0.0647,-0.067,-0.0686,-0.0687,-0.0688,-0.0685,-0.0628,-0.0591,-0.0464,-0.0425,-0.0283,-0.0179,0.007,0.0203,0.0397,0.0415,0.0473,0.0445,0.0391,0.0398,0.0385,0.0374,0.0497,0.0497,0.0497,0.0497,0,-0.0641,-0.0666,-0.0677,-0.0719,-0.0737,-0.0741,-0.0725,-0.0699,-0.0613,-0.0562,-0.0405,-0.0266,-0.0106,0.0072,0.0211,0.035,0.0432,0.0474,0.0474,0.0448,0.0392,0.0396,0.0385,0.0497,0.0497,0.0497,0.0497,0,-0.0648,-0.0669,-0.0703,-0.073,-0.0766,-0.0768,-0.0757,-0.0688,-0.0639,-0.0489,-0.0442,-0.0253,-0.0143,0.0049,0.0188,0.0308,0.0335,0.0366,0.0373,0.0374,0.0295,0.0203,0.0284,0,0,0,0,0,-0.064,-0.0666,-0.0703,-0.0732,-0.0773,-0.0786,-0.0765,-0.0738,-0.0661,-0.0554,-0.0488,-0.033,-0.0102,0.0005,0.0122,0.0161,0.0331,0.0299,0.0363,0.0497,0.0497,0.0421,0,0,0,0,0,0,-0.0632,-0.0674,-0.0698,-0.0733,-0.0755,-0.0783,-0.0771,-0.0721,-0.064,-0.0549,-0.0422,-0.0328,-0.0109,-0.0176,0.0115,0.0153,0.0205,0.0413,0.0415,0.0497,0.0497,0.0497,0.0419,0,0,0,0,0]}]]